TimeEST,TemperatureF,Dew PointF,Humidity,Sea Level PressureIn,VisibilityMPH,Wind Direction,Wind SpeedMPH,Gust SpeedMPH,PrecipitationIn,Events,Conditions,WindDirDegrees,DateUTC
12:18 AM,42.8,41.0,93,29.49,9.0,South,5.8,-,N/A,,Overcast,170,2012-12-18 05:18:00
12:54 AM,42.1,41.0,96,29.49,6.0,South,5.8,-,N/A,,Overcast,170,2012-12-18 05:54:00
1:10 AM,42.8,41.0,93,29.48,8.0,South,5.8,-,N/A,,Overcast,190,2012-12-18 06:10:00
1:50 AM,42.8,41.0,93,29.48,5.0,SSW,6.9,-,N/A,,Overcast,210,2012-12-18 06:50:00
1:54 AM,43.0,41.0,93,29.49,5.0,SSW,8.1,-,N/A,,Overcast,210,2012-12-18 06:54:00
2:13 AM,42.8,41.0,93,29.48,2.0,SW,10.4,-,0.00,Rain,Light Rain,230,2012-12-18 07:13:00
2:35 AM,42.8,41.0,93,29.49,5.0,WSW,10.4,-,0.00,,Overcast,240,2012-12-18 07:35:00
2:40 AM,42.8,41.0,93,29.49,7.0,WSW,12.7,-,0.00,,Overcast,240,2012-12-18 07:40:00
2:54 AM,43.0,41.0,93,29.51,9.0,WSW,12.7,-,0.00,,Overcast,250,2012-12-18 07:54:00
3:30 AM,42.8,39.2,87,29.49,10.0,SW,11.5,-,N/A,,Overcast,230,2012-12-18 08:30:00
3:54 AM,43.0,39.9,89,29.52,10.0,WSW,9.2,-,N/A,,Overcast,250,2012-12-18 08:54:00
4:54 AM,42.1,39.9,92,29.52,10.0,WSW,12.7,21.9,N/A,,Overcast,240,2012-12-18 09:54:00
5:29 AM,42.8,39.2,87,29.49,10.0,WSW,10.4,20.7,N/A,,Overcast,240,2012-12-18 10:29:00
5:36 AM,42.8,39.2,87,29.50,10.0,WSW,12.7,-,N/A,,Overcast,240,2012-12-18 10:36:00
7:03 AM,41.0,39.2,93,29.50,6.0,WSW,13.8,-,0.01,Rain,Light Rain,240,2012-12-18 12:03:00
7:54 AM,41.0,39.0,93,29.54,4.0,West,15.0,-,0.06,Rain,Light Rain,260,2012-12-18 12:54:00
8:04 AM,41.0,39.2,93,29.51,4.0,West,13.8,-,0.01,Rain,Rain,260,2012-12-18 13:04:00
8:19 AM,39.2,39.2,100,29.51,2.5,West,16.1,20.7,0.06,Rain,Rain,270,2012-12-18 13:19:00
8:28 AM,39.2,37.4,93,29.52,4.0,West,16.1,26.5,0.08,Rain,Light Rain,270,2012-12-18 13:28:00
8:54 AM,39.0,37.0,93,29.57,10.0,West,15.0,25.3,0.08,Rain,Light Rain,260,2012-12-18 13:54:00
9:17 AM,37.4,35.6,93,29.55,4.0,West,19.6,27.6,0.01,Rain,Light Rain,280,2012-12-18 14:17:00
9:30 AM,37.4,35.6,93,29.55,9.0,West,16.1,26.5,0.01,Rain,Light Rain,280,2012-12-18 14:30:00
9:54 AM,37.0,35.1,93,29.61,10.0,WNW,13.8,21.9,0.02,Rain,Light Rain,290,2012-12-18 14:54:00
10:27 AM,35.6,33.8,93,29.59,8.0,West,13.8,21.9,0.02,Rain,Light Rain,280,2012-12-18 15:27:00
10:54 AM,34.0,32.0,92,29.64,4.0,West,19.6,31.1,0.03,Snow,Light Snow,280,2012-12-18 15:54:00
11:09 AM,33.8,32.0,93,29.60,4.0,WNW,18.4,27.6,0.00,Snow,Light Snow,290,2012-12-18 16:09:00
11:47 AM,33.8,30.2,87,29.60,2.0,WNW,25.3,31.1,0.01,Snow,Light Snow,290,2012-12-18 16:47:00
11:54 AM,34.0,32.0,92,29.65,2.5,WNW,23.0,34.5,0.01,Snow,Light Snow,290,2012-12-18 16:54:00
12:13 PM,33.8,32.0,93,29.61,1.5,WNW,15.0,26.5,0.00,Snow,Light Snow,290,2012-12-18 17:13:00
12:20 PM,33.8,32.0,93,29.61,2.0,West,19.6,28.8,0.00,Snow,Light Snow,280,2012-12-18 17:20:00
12:30 PM,33.8,32.0,93,29.61,4.0,WNW,18.4,31.1,0.00,Snow,Light Snow,290,2012-12-18 17:30:00
12:41 PM,33.8,32.0,93,29.61,2.5,West,17.3,28.8,0.00,Snow,Light Snow,280,2012-12-18 17:41:00
12:54 PM,33.1,32.0,96,29.65,1.5,West,17.3,26.5,0.00,Snow,Light Snow,280,2012-12-18 17:54:00
1:33 PM,33.8,30.2,87,29.62,2.5,WNW,20.7,26.5,0.00,Snow,Light Snow,290,2012-12-18 18:33:00
1:45 PM,33.8,30.2,87,29.62,3.0,West,24.2,31.1,0.01,Snow,Light Snow,280,2012-12-18 18:45:00
1:54 PM,33.1,30.9,92,29.67,6.0,WNW,20.7,32.2,0.01,Snow,Light Snow,290,2012-12-18 18:54:00
2:16 PM,33.8,30.2,87,29.64,2.0,West,19.6,29.9,0.00,Snow,Light Snow,280,2012-12-18 19:16:00
2:20 PM,32.0,30.2,93,29.64,1.5,WNW,17.3,29.9,0.00,Snow,Light Snow,290,2012-12-18 19:20:00
2:27 PM,32.0,30.2,93,29.64,1.0,West,16.1,26.5,0.00,Snow,Light Snow,280,2012-12-18 19:27:00
2:35 PM,32.0,30.2,93,29.65,3.0,West,19.6,25.3,0.00,Snow,Light Snow,280,2012-12-18 19:35:00
2:52 PM,32.0,30.2,93,29.65,2.5,West,17.3,28.8,0.00,Snow,Light Snow,280,2012-12-18 19:52:00
2:54 PM,32.0,30.0,92,29.70,2.5,West,20.7,26.5,0.00,Snow,Light Snow,280,2012-12-18 19:54:00
3:06 PM,32.0,30.2,93,29.66,1.8,West,17.3,27.6,0.00,Snow,Light Snow,280,2012-12-18 20:06:00
3:13 PM,32.0,30.2,93,29.67,2.5,West,15.0,-,0.00,Snow,Light Snow,280,2012-12-18 20:13:00
3:27 PM,32.0,30.2,93,29.67,4.0,West,19.6,27.6,0.00,Snow,Light Snow,280,2012-12-18 20:27:00
3:54 PM,32.0,28.9,88,29.72,9.0,West,18.4,32.2,0.00,,Overcast,280,2012-12-18 20:54:00
4:01 PM,32.0,28.4,87,29.67,10.0,WNW,21.9,29.9,N/A,,Mostly Cloudy,290,2012-12-18 21:01:00
4:54 PM,32.0,27.0,82,29.73,10.0,West,18.4,26.5,N/A,,Scattered Clouds,280,2012-12-18 21:54:00
5:14 PM,32.0,28.4,87,29.69,10.0,West,17.3,24.2,N/A,,Mostly Cloudy,280,2012-12-18 22:14:00
5:54 PM,32.0,28.0,85,29.74,10.0,West,15.0,23.0,N/A,,Mostly Cloudy,270,2012-12-18 22:54:00
6:54 PM,32.0,28.0,85,29.77,10.0,West,19.6,35.7,N/A,,Overcast,270,2012-12-18 23:54:00
7:14 PM,32.0,26.6,80,29.73,10.0,West,16.1,27.6,N/A,,Scattered Clouds,280,2012-12-19 00:14:00
7:54 PM,32.0,27.0,82,29.79,10.0,West,17.3,24.2,N/A,,Scattered Clouds,280,2012-12-19 00:54:00
8:54 PM,32.0,27.0,82,29.78,10.0,West,15.0,23.0,N/A,,Scattered Clouds,270,2012-12-19 01:54:00
9:54 PM,32.0,27.0,82,29.79,10.0,West,13.8,-,N/A,,Mostly Cloudy,260,2012-12-19 02:54:00
10:34 PM,32.0,28.4,87,29.76,10.0,West,17.3,26.5,N/A,,Mostly Cloudy,270,2012-12-19 03:34:00
10:54 PM,33.1,28.9,85,29.82,10.0,West,17.3,28.8,N/A,,Overcast,270,2012-12-19 03:54:00
11:54 PM,33.1,28.9,85,29.81,10.0,West,16.1,-,N/A,,Overcast,260,2012-12-19 04:54:00